Location: Kalberh�ni
(46.4610°N, 7.2453°E)
Time: 08:52:49
(UTC+00:00)

Lacrosse 4 Rocket - Pass Details

Date: 25 October 2021
Orbit: 538 x 619 km, 68.0° (Epoch: 28 November)

Event Time Altitude Azimuth Distance (km) Brightness Sun altitude
Rises 17:31:19 0° 329° (NNW) 2,813 5.3 -11.7°
Reaches altitude 10° 17:33:33 10° 330° (NNW) 1,922 4.4 -12.1°
Maximum altitude 17:37:52 83° 56° (ENE) 609 1.4 -12.8°
Drops below altitude 10° 17:42:17 10° 147° (SSE) 1,954 3.8 -13.6°
Sets 17:44:33 0° 149° (SSE) 2,863 4.7 -14.0°
Enters shadow 17:44:37 - 149° (SSE) 2,887 4.7 -14.0°
